Location: Cisewo
(53.3833°N, 14.9000°E)
Time: 13:34:15
(UTC+00:00)

Cosmos 482 Debris - Pass Details

Date: 18 April 2021
Orbit: 200 x 2130 km, 52.0° (Epoch: 16 May)

Event Time Altitude Azimuth Distance (km) Brightness Sun altitude
Rises 18:37:03 0° 235° (SW) 2,384 8.0 -5.0°
Reaches altitude 10° 18:39:39 10° 223° (SW) 1,268 6.4 -5.3°
Maximum altitude 18:41:59 27° 162° (SSE) 569 4.1 -5.6°
Drops below altitude 10° 18:43:47 10° 99° (E) 971 5.0 -5.9°
Enters shadow 18:44:08 - 95° (E) 1,112 5.3 -5.9°
